Regional Weather Roundup
Issued by NWS

Home | Current Version | Previous Version | Graphics & Text | Print | Product List | Glossary On
Versions: 1 2 3 4 5 6 7 8 9 10 11 12 13 14 15 16 17 18 19 20 21 22 23 24 25 26 27 28 29 30 31 32 33 34 35 36 37 38 39 40 41 42 43 44 45 46 47 48 49 50
000
ASUS43 KIND 241409
RWRIN

WEATHER ROUNDUP FOR INDIANA
NATIONAL WEATHER SERVICE INDIANAPOLIS IN
1000 AM EDT WED AUG 24 2016

NOTE: "FAIR" INDICATES FEW OR NO CLOUDS BELOW 12,000 FEET WITH NO
SIGNIFICANT WEATHER AND/OR OBSTRUCTIONS TO VISIBILITY.

* - STATION DOES NOT REPORT WEATHER SUCH AS PRECIPITATION OR FOG.

+ - STATION NOT QUALITY CONTROLLED BY THE NATIONAL WEATHER SERVICE.
    USE DATA WITH CAUTION...ESPECIALLY DEWPOINT AND RELATIVE
    HUMIDITY OBSERVATIONS.

INZ001>003-010>013-019-020-241500-
NORTHWEST INDIANA

CITY           SKY/WX    TMP DP  RH WIND       PRES   REMARKS
GARY /AIRPORT/ LGT RAIN  73  72  94 SW12      30.04R
KNOX *+        CLOUDY    73  50  43 S15G22    30.05F
LA PORTE +     CLOUDY    74  74 100 S8        30.06F
MICHIGAN CITY+ CLOUDY    72  68  88 MISG      30.05S
MONTICELLO +   CLOUDY    73  65  75 S9        30.06F
RENSSELAER +   LGT RAIN  72  70  94 S9        30.05F
VALPARAISO     CLOUDY    73  68  84 S12       30.05F

$$

LMZ046-743>745-241500-
SOUTHERN LAKE MICHIGAN

STATION/POSITION TIME  TEMP    WIND        PRES    WAVE
                       AIR SEA DIR/SP/G            HT
                 (UTC) (F)     (DEG/KT/KT) (MB)    (FT)
BURNS HARBOR     1304   73     190/ 11/ 19 1017.3R
MICHIGAN CITY    1300   72     150/ 15/ 20   N/A
5NW MICH CITY    1400   73 73  200/ 12/ 16   N/A     2

$$

INZ004-005-014>016-021>024-241500-
NORTH CENTRAL INDIANA

CITY           SKY/WX    TMP DP  RH WIND       PRES   REMARKS
ELKHART        CLOUDY    73  66  78 S13       30.07S
GOSHEN         CLOUDY    73  64  73 S12       30.08S
LOGANSPORT +   CLOUDY    72  68  88 S8        30.09F
PERU/GRISSOM   MOSUNNY   74  67  81 S10       30.08F
ROCHESTER +    CLOUDY    77  70  78 S7        30.08F
SOUTH BEND     CLOUDY    73  67  81 S10       30.06S
WARSAW +       CLOUDY    72  66  83 S5        30.09S

$$

INZ006>009-017-018-025>027-241500-
NORTHEAST INDIANA

CITY           SKY/WX    TMP DP  RH WIND       PRES   REMARKS
ANGOLA *+      SUNNY     73  66  78 S12       30.10F
AUBURN +       CLOUDY    73  63  68 S3        30.12F
FORT WAYNE     CLOUDY    73  64  73 S12       30.12F
HUNTINGTON +   CLOUDY   N/A N/A N/A S6        30.12R

$$

INZ028-029-035-036-043>045-051>053-241500-
WEST CENTRAL INDIANA

CITY           SKY/WX    TMP DP  RH WIND       PRES   REMARKS
CRAWFORDSVL +  CLOUDY    72  72 100 S9        30.10F
GREENCASTLE +  CLOUDY    73  72  94 S8        30.12F
LAFAYETTE      CLOUDY    73  69  87 S7        30.05F
TERRE HAUTE    CLOUDY    77  71  82 S13G20    30.09F

$$

INZ030>032-037>040-046>048-054>057-064-065-241500-
CENTRAL INDIANA

CITY           SKY/WX    TMP DP  RH WIND       PRES   REMARKS
ANDERSON       PTSUNNY   73  66  78 S12       30.14F
COLUMBUS       MOSUNNY   72  70  94 S10       30.16F
INDIANAPOLIS   PTSUNNY   74  67  78 S13       30.12F
-EAGLE CREEK   MOSUNNY   75  67  76 S7        30.12F
KOKOMO *+      CLOUDY    72  63  73 S9        30.10F
MARION +       CLOUDY    72  65  80 S9        30.13F HAZE
MT COMFORT *+  MOSUNNY   72  66  83 S9        30.14F
SHELBYVILLE    CLOUDY    73  66  78 S10       30.15S
ZIONSVILLE +   CLOUDY    73  68  84 S12       30.13F

$$

INZ033-034-041-042-049-050-058-059-241500-
EAST CENTRAL INDIANA

CITY           SKY/WX    TMP DP  RH WIND       PRES   REMARKS
MUNCIE         MOSUNNY   75  66  73 S10       30.14S

$$

INZ060-061-067>069-081>083-085>088-241500-
SOUTHWEST INDIANA

CITY           SKY/WX    TMP DP  RH WIND       PRES   REMARKS
EVANSVILLE     CLOUDY    78  72  81 SW12      30.15S
HUNTINGBURG *+ PTSUNNY   79  72  78 S9        30.16F
WASHINGTON +   MOSUNNY   78  74  88 MISG      30.13F

$$

INZ062-063-066-070>080-084-089>092-241500-
SOUTH CENTRAL AND SOUTHEAST INDIANA

CITY           SKY/WX    TMP DP  RH WIND       PRES   REMARKS
BLOOMINGTON    CLOUDY    76  69  79 S8        30.14S
MADISON *+     CLOUDY    73  68  83 S6        30.21S

$$





USA.gov is the U.S. government's official web portal to all federal, state and local government web resources and services.